����,���ϕ���(m/s),���ϕ���,�ő�u�ԕ���(m/s),�ő啗��������,�C��(��),���x(%),10���Ԉړ��ώZ�J��(mm),1���Ԉړ��ώZ�J��(mm),���J��(mm),�݌v�J��(mm),����(���ώZ)(MJ/m2),����(���ώZ)(min),���n�C��(hPa),�C�ʋC��(hPa)
2021-02-15T00:00:00+09:00,1.5,�k�k��,2.5,�k�k��,10.5,96.2,0,1.5,1.5,1.5,13.59,398,998.9,1012.9
2021-02-15T00:01:00+09:00,1.4,�k�k��,2.5,�k�k��,10.5,96.1,0,1.5,0,1.5,0,0,998.9,1012.9
2021-02-15T00:02:00+09:00,1.4,�k�k��,2.5,�k�k��,10.4,96.1,0,1.5,0,1.5,0,0,998.9,1012.9
2021-02-15T00:03:00+09:00,1.3,�k�k��,2.5,�k�k��,10.5,96.2,0,1.5,0,1.5,0,0,998.9,1012.9
2021-02-15T00:04:00+09:00,1.2,�k�k��,2,�k,10.6,96.3,0,1.5,0,1.5,0,0,998.9,1012.9
2021-02-15T00:05:00+09:00,1.1,�k�k��,2,�k,10.5,96.1,0,1.5,0,1.5,0,0,998.9,1012.9
2021-02-15T00:06:00+09:00,1,�k�k��,2,�k,10.4,96.1,0,1.5,0,1.5,0,0,998.9,1012.9
2021-02-15T00:07:00+09:00,1,�k�k��,2,�k,10.4,95.9,0,1.5,0,1.5,0,0,998.8,1012.8
2021-02-15T00:08:00+09:00,1,�k�k��,1.9,�k�k��,10.4,96,0,1.5,0,1.5,0,0,998.8,1012.8
2021-02-15T00:09:00+09:00,1,�k�k��,1.9,�k�k��,10.3,95.9,0,1.5,0,1.5,0,0,998.7,1012.7
2021-02-15T00:10:00+09:00,1,�k�k��,1.8,�k�k��,10.4,96.1,0,1.5,0,1.5,0,0,998.7,1012.7
2021-02-15T00:11:00+09:00,0.9,�k�k��,1.8,�k�k��,10.4,96.2,0,1.5,0,1.5,0,0,998.6,1012.6
2021-02-15T00:12:00+09:00,0.9,�k�k��,1.8,�k�k��,10.3,96.1,0,1,0,1.5,0,0,998.6,1012.6
2021-02-15T00:13:00+09:00,1,�k�k��,1.8,�k�k��,10.3,96,0,1,0,1.5,0,0,998.6,1012.6
2021-02-15T00:14:00+09:00,1,�k�k��,1.8,�k�k��,10.2,96,0,1,0,1.5,0,0,998.6,1012.6
2021-02-15T00:15:00+09:00,1.1,�k�k��,1.8,�k�k��,10.3,96.1,0,1,0,1.5,0,0,998.6,1012.6
2021-02-15T00:16:00+09:00,1.1,�k�k��,1.8,�k�k��,10.2,96.1,0,1,0,1.5,0,0,998.6,1012.6
2021-02-15T00:17:00+09:00,1.2,�k�k��,1.9,�k,10.3,96.2,0,1,0,1.5,0,0,998.6,1012.6
2021-02-15T00:18:00+09:00,1.2,�k�k��,1.9,�k,10.3,96.3,0,1,0,1.5,0,0,998.6,1012.6
2021-02-15T00:19:00+09:00,1.1,�k�k��,1.9,�k,10.3,96.3,0.5,1.5,0.5,2,0,0,998.7,1012.7
2021-02-15T00:20:00+09:00,1,�k,1.9,�k,10.2,96.3,0.5,1.5,0.5,2,0,0,998.7,1012.7
2021-02-15T00:21:00+09:00,0.9,�k,1.9,�k,10.3,96.2,0.5,1.5,0.5,2,0,0,998.7,1012.7
2021-02-15T00:22:00+09:00,0.9,�k,1.9,�k,10.3,96.3,0.5,1.5,0.5,2,0,0,998.6,1012.6
2021-02-15T00:23:00+09:00,0.9,�k,1.9,�k,10.3,96.3,0.5,1.5,0.5,2,0,0,998.6,1012.6
2021-02-15T00:24:00+09:00,0.9,�k,1.9,�k,10.3,96.3,0.5,1.5,0.5,2,0,0,998.6,1012.6
2021-02-15T00:25:00+09:00,0.8,�k,1.9,�k,10.4,96.3,0.5,1.5,0.5,2,0,0,998.6,1012.6
2021-02-15T00:26:00+09:00,0.8,�k�k��,1.9,�k,10.4,96.4,0.5,1.5,0.5,2,0,0,998.5,1012.5
2021-02-15T00:27:00+09:00,0.7,�k�k��,1.5,�k��,10.4,96.3,0.5,1.5,0.5,2,0,0,998.6,1012.6
2021-02-15T00:28:00+09:00,0.6,�k�k��,1.5,�k��,10.3,96.2,0.5,1.5,0.5,2,0,0,998.5,1012.5
2021-02-15T00:29:00+09:00,0.6,�k�k��,1.5,�k��,10.4,96.3,0,1.5,0.5,2,0,0,998.5,1012.5
2021-02-15T00:30:00+09:00,0.6,�k�k��,1.5,�k��,10.3,96.4,0,1.5,0.5,2,0,0,998.5,1012.5
2021-02-15T00:31:00+09:00,0.6,�k�k��,1.5,�k��,10.4,96.3,0,1.5,0.5,2,0,0,998.5,1012.5
2021-02-15T00:32:00+09:00,0.6,�k�k��,1.5,�k��,10.4,96.3,0,1.5,0.5,2,0,0,998.4,1012.4
2021-02-15T00:33:00+09:00,0.5,�k�k��,1.5,�k��,10.5,96.3,0,1.5,0.5,2,0,0,998.4,1012.4
2021-02-15T00:34:00+09:00,0.4,�k�k��,1.5,�k��,10.3,96.4,0,1.5,0.5,2,0,0,998.3,1012.3
2021-02-15T00:35:00+09:00,0.4,�k,1.5,�k��,10.2,96,0,1,0.5,2,0,0,998.3,1012.3
2021-02-15T00:36:00+09:00,0.4,�k,1.4,�k�k��,10.3,96.2,0,1,0.5,2,0,0,998.2,1012.2
2021-02-15T00:37:00+09:00,0.5,�k,1.4,�k�k��,10.4,96.5,0,1,0.5,2,0,0,998.2,1012.2
2021-02-15T00:38:00+09:00,0.5,�k,1.4,�k�k��,10.6,96.5,0,1,0.5,2,0,0,998.1,1012.1
2021-02-15T00:39:00+09:00,0.5,�k,1.9,�k��,10.4,96.5,0,1,0.5,2,0,0,998.1,1012.1
2021-02-15T00:40:00+09:00,0.7,�k�k��,2,�k��,10.4,96.2,0,1,0.5,2,0,0,998,1012
2021-02-15T00:41:00+09:00,0.8,�k�k��,2,�k��,10.4,96.2,0,1,0.5,2,0,0,998.1,1012.1
2021-02-15T00:42:00+09:00,0.8,�k�k��,2,�k��,10.3,96.3,0,1,0.5,2,0,0,998,1012
2021-02-15T00:43:00+09:00,0.9,�k�k��,2,�k��,10.3,96.1,0,1,0.5,2,0,0,998,1012
2021-02-15T00:44:00+09:00,0.9,�k�k��,2,�k��,10.3,96.2,0,1,0.5,2,0,0,998,1012
2021-02-15T00:45:00+09:00,0.9,�k,2,�k��,10.2,96.1,0,1,0.5,2,0,0,997.9,1011.9
2021-02-15T00:46:00+09:00,0.8,�k,2,�k��,10.2,96.1,0,1,0.5,2,0,0,997.9,1011.9
2021-02-15T00:47:00+09:00,0.7,�k,2,�k��,10.2,96.2,0,1,0.5,2,0,0,997.8,1011.8
2021-02-15T00:48:00+09:00,0.7,�k,2,�k��,10.2,96.3,0,1,0.5,2,0,0,997.8,1011.8
2021-02-15T00:49:00+09:00,0.6,�k�k��,2,�k��,10.1,96.2,0,1,0.5,2,0,0,997.7,1011.7
2021-02-15T00:50:00+09:00,0.5,�k�k��,1.8,�k��,10.1,96.2,0,0.5,0.5,2,0,0,997.7,1011.7
2021-02-15T00:51:00+09:00,0.3,�k�k��,1.3,�k�k��,10,96.1,0,0.5,0.5,2,0,0,997.7,1011.7
2021-02-15T00:52:00+09:00,0.3,�k�k��,1,�k,10,96.3,0,0.5,0.5,2,0,0,997.7,1011.7
2021-02-15T00:53:00+09:00,0.2,�É�,1,�k,10.2,96.5,0,0.5,0.5,2,0,0,997.7,1011.7
2021-02-15T00:54:00+09:00,0.2,�É�,1,�k,10.1,96.6,0,0.5,0.5,2,0,0,997.7,1011.7
2021-02-15T00:55:00+09:00,0.2,�É�,1,�k,10.2,96.6,0,0.5,0.5,2,0,0,997.6,1011.6
2021-02-15T00:56:00+09:00,0.1,�É�,0.8,�k��,10.2,96.7,0,0.5,0.5,2,0,0,997.6,1011.6
2021-02-15T00:57:00+09:00,0.2,�É�,0.8,�k��,10.1,96.6,0,0.5,0.5,2,0,0,997.6,1011.6
2021-02-15T00:58:00+09:00,0.2,�É�,0.8,�k��,10,96.6,0,0.5,0.5,2,0,0,997.6,1011.6
2021-02-15T00:59:00+09:00,0.2,�É�,0.8,�k��,10.1,96.3,0,0.5,0.5,2,0,0,997.6,1011.6
2021-02-15T01:00:00+09:00,0.2,�É�,0.7,�k��,10.2,96.7,0,0.5,0.5,2,0,0,997.6,1011.6
2021-02-15T01:01:00+09:00,0.3,�k,0.7,�k��,10.2,96.8,0.5,1,1,2.5,0,0,997.6,1011.6
2021-02-15T01:02:00+09:00,0.3,�k,0.7,�k��,10.1,96.7,0.5,1,1,2.5,0,0,997.6,1011.6
2021-02-15T01:03:00+09:00,0.3,�k,0.9,�k�k��,10.1,96.7,0.5,1,1,2.5,0,0,997.6,1011.6
2021-02-15T01:04:00+09:00,0.4,�k,1,�k��,10.2,96.8,0.5,1,1,2.5,0,0,997.5,1011.5
2021-02-15T01:05:00+09:00,0.4,�k,1.1,�k��,10.2,97,0.5,1,1,2.5,0,0,997.5,1011.5
2021-02-15T01:06:00+09:00,0.4,�k,1.1,�k��,10.2,96.9,0.5,1,1,2.5,0,0,997.5,1011.5
2021-02-15T01:07:00+09:00,0.4,�k,1.1,�k��,10.2,96.8,0.5,1,1,2.5,0,0,997.5,1011.5
2021-02-15T01:08:00+09:00,0.4,�k,1.1,�k��,10.1,96.8,0.5,1,1,2.5,0,0,997.5,1011.5
2021-02-15T01:09:00+09:00,0.3,�k,1.1,�k��,10.1,96.8,0.5,1,1,2.5,0,0,997.5,1011.5
2021-02-15T01:10:00+09:00,0.3,�k,1.1,�k��,10.3,96.9,0.5,1,1,2.5,0,0,997.6,1011.6
2021-02-15T01:11:00+09:00,0.3,�k,1.1,�k��,10,96.8,0,1,1,2.5,0,0,997.6,1011.6
2021-02-15T01:12:00+09:00,0.3,�k,1.1,�k��,10.2,96.8,0,1,1,2.5,0,0,997.6,1011.6
2021-02-15T01:13:00+09:00,0.4,�k,1.5,�k��,10.3,97.2,0,1,1,2.5,0,0,997.6,1011.6
2021-02-15T01:14:00+09:00,0.4,�k�k��,1.5,�k��,10.4,97.3,0,1,1,2.5,0,0,997.6,1011.6
2021-02-15T01:15:00+09:00,0.4,�k�k��,1.5,�k��,10.5,97.4,0,1,1,2.5,0,0,997.6,1011.6
2021-02-15T01:16:00+09:00,0.4,�k�k��,1.5,�k��,10.4,97.2,0,1,1,2.5,0,0,997.6,1011.6
2021-02-15T01:17:00+09:00,0.4,�k�k��,1.5,�k��,10.4,97.2,0,1,1,2.5,0,0,997.5,1011.5
2021-02-15T01:18:00+09:00,0.4,�k�k��,1.5,�k��,10.4,97,0,1,1,2.5,0,0,997.5,1011.5
2021-02-15T01:19:00+09:00,0.5,�k�k��,1.5,�k��,10.4,97,0,0.5,1,2.5,0,0,997.5,1011.5
2021-02-15T01:20:00+09:00,0.5,�k�k��,1.5,�k��,10.4,97.1,0,0.5,1,2.5,0,0,997.5,1011.5
2021-02-15T01:21:00+09:00,0.5,�k�k��,1.5,�k��,10.4,97,0,0.5,1,2.5,0,0,997.4,1011.4
2021-02-15T01:22:00+09:00,0.6,�k�k��,1.5,�k��,10.4,97.1,0,0.5,1,2.5,0,0,997.4,1011.4
2021-02-15T01:23:00+09:00,0.6,�k�k��,1.4,�k,10.4,97.1,0,0.5,1,2.5,0,0,997.4,1011.4
2021-02-15T01:24:00+09:00,0.6,�k,1.5,�k�k��,10.4,96.9,0,0.5,1,2.5,0,0,997.3,1011.3
2021-02-15T01:25:00+09:00,0.7,�k,1.5,�k�k��,10.4,97.1,0,0.5,1,2.5,0,0,997.3,1011.3
2021-02-15T01:26:00+09:00,0.7,�k,1.5,�k�k��,10.3,97,0,0.5,1,2.5,0,0,997.2,1011.2
2021-02-15T01:27:00+09:00,0.8,�k,1.8,�k�k��,10.3,96.9,0,0.5,1,2.5,0,0,997.2,1011.2
2021-02-15T01:28:00+09:00,0.9,�k�k��,1.8,�k�k��,10.3,96.9,0.5,1,1.5,3,0,0,997.2,1011.2
2021-02-15T01:29:00+09:00,0.8,�k�k��,1.8,�k�k��,10.2,96.9,0.5,1,1.5,3,0,0,997.1,1011.1
2021-02-15T01:30:00+09:00,0.8,�k,1.8,�k�k��,10.2,96.8,0.5,1,1.5,3,0,0,997.1,1011.1
2021-02-15T01:31:00+09:00,0.8,�k,1.8,�k�k��,10.2,96.8,0.5,1,1.5,3,0,0,997.1,1011.1
2021-02-15T01:32:00+09:00,0.9,�k,1.8,�k�k��,10.1,96.9,0.5,1,1.5,3,0,0,997.2,1011.2
2021-02-15T01:33:00+09:00,0.9,�k,1.8,�k�k��,10.2,96.8,0.5,1,1.5,3,0,0,997.1,1011.1
2021-02-15T01:34:00+09:00,0.9,�k,1.8,�k�k��,10.2,97,0.5,1,1.5,3,0,0,997.1,1011.1
2021-02-15T01:35:00+09:00,0.8,�k�k��,1.8,�k�k��,10.2,96.9,0.5,1,1.5,3,0,0,997,1011
2021-02-15T01:36:00+09:00,0.8,�k�k��,1.8,�k�k��,10.2,97,0.5,1,1.5,3,0,0,997,1011
2021-02-15T01:37:00+09:00,0.7,�k�k��,1.8,�k�k��,10.1,96.9,0.5,1,1.5,3,0,0,997,1011
2021-02-15T01:38:00+09:00,0.7,�k�k��,2.3,�k,10.2,96.9,0,1,1.5,3,0,0,996.9,1010.9
2021-02-15T01:39:00+09:00,0.9,�k�k��,2.3,�k,10.4,97.2,0,1,1.5,3,0,0,996.9,1010.9
2021-02-15T01:40:00+09:00,1,�k,2.4,�k�k��,10.2,97.2,0,1,1.5,3,0,0,996.8,1010.8
2021-02-15T01:41:00+09:00,1.1,�k,2.4,�k�k��,10.2,97,0,1,1.5,3,0,0,996.7,1010.7
2021-02-15T01:42:00+09:00,1.2,�k,2.4,�k�k��,10.1,97,0,1,1.5,3,0,0,996.7,1010.7
2021-02-15T01:43:00+09:00,1.2,�k,2.4,�k�k��,10.2,96.9,0,1,1.5,3,0,0,996.7,1010.7
2021-02-15T01:44:00+09:00,1.3,�k�k��,2.4,�k�k��,10.2,97.1,0,1,1.5,3,0,0,996.6,1010.6
2021-02-15T01:45:00+09:00,1.3,�k�k��,2.4,�k�k��,10.1,97.1,0.5,1.5,2,3.5,0,0,996.6,1010.6
2021-02-15T01:46:00+09:00,1.5,�k�k��,2.4,�k�k��,10.3,97.2,0.5,1.5,2,3.5,0,0,996.5,1010.5
2021-02-15T01:47:00+09:00,1.5,�k�k��,2.4,�k�k��,10.3,97.2,0.5,1.5,2,3.5,0,0,996.5,1010.5
2021-02-15T01:48:00+09:00,1.4,�k�k��,2.4,�k�k��,10.3,97.2,0.5,1.5,2,3.5,0,0,996.5,1010.5
2021-02-15T01:49:00+09:00,1.3,�k�k��,2.4,�k�k��,10.2,97.1,0.5,1.5,2,3.5,0,0,996.5,1010.5
2021-02-15T01:50:00+09:00,1.2,�k�k��,2.4,�k�k��,10.1,97,0.5,1.5,2,3.5,0,0,996.5,1010.5
2021-02-15T01:51:00+09:00,1.2,�k�k��,2.4,�k�k��,10.2,96.9,0.5,1.5,2,3.5,0,0,996.5,1010.5
2021-02-15T01:52:00+09:00,1.1,�k�k��,2.3,�k,10.2,97.1,0.5,1.5,2,3.5,0,0,996.5,1010.5
2021-02-15T01:53:00+09:00,1.1,�k�k��,2.3,�k,10.1,97.1,0.5,1.5,2,3.5,0,0,996.5,1010.5
2021-02-15T01:54:00+09:00,1.1,�k�k��,2.3,�k,10,97,1,2,2.5,4,0,0,996.5,1010.5
2021-02-15T01:55:00+09:00,1.1,�k�k��,2.3,�k,10.1,97,0.5,2,2.5,4,0,0,996.5,1010.5
2021-02-15T01:56:00+09:00,1,�k�k��,2.1,�k�k��,10,97,0.5,2,2.5,4,0,0,996.5,1010.5
2021-02-15T01:57:00+09:00,1,�k�k��,2.1,�k�k��,10.1,97,0.5,2,2.5,4,0,0,996.4,1010.4
2021-02-15T01:58:00+09:00,1,�k�k��,2,�k��,10.2,97.3,0.5,2,2.5,4,0,0,996.4,1010.4
2021-02-15T01:59:00+09:00,1,�k�k��,2,�k��,10.1,97.3,0.5,2,2.5,4,0,0,996.4,1010.4
2021-02-15T02:00:00+09:00,1,�k�k��,2,�k��,9.9,97,0.5,2,2.5,4,0,0,996.4,1010.4
2021-02-15T02:01:00+09:00,1,�k�k��,1.8,�k�k��,10,97,0.5,1.5,2.5,4,0,0,996.3,1010.3
2021-02-15T02:02:00+09:00,1,�k�k��,1.7,�k�k��,9.9,97.1,1,2,3,4.5,0,0,996.3,1010.3
2021-02-15T02:03:00+09:00,0.9,�k�k��,1.5,�k,10,97.1,1,2,3,4.5,0,0,996.3,1010.3
2021-02-15T02:04:00+09:00,0.9,�k�k��,1.5,�k,10.1,97.3,0.5,2,3,4.5,0,0,996.3,1010.3
2021-02-15T02:05:00+09:00,0.8,�k�k��,1.5,�k,10.1,97.3,0.5,2,3,4.5,0,0,996.2,1010.2
2021-02-15T02:06:00+09:00,0.8,�k�k��,1.5,�k,9.9,97.3,0.5,2,3,4.5,0,0,996.2,1010.2
2021-02-15T02:07:00+09:00,0.8,�k�k��,1.5,�k,10.1,97.2,0.5,2,3,4.5,0,0,996.2,1010.2
2021-02-15T02:08:00+09:00,0.8,�k,1.5,�k,10,97.3,0.5,2,3,4.5,0,0,996.1,1010.1
2021-02-15T02:09:00+09:00,0.8,�k�k��,1.5,�k,10,97.3,0.5,2,3,4.5,0,0,996.1,1010.1
2021-02-15T02:10:00+09:00,0.8,�k�k��,1.5,�k,10.1,97.3,0.5,2,3,4.5,0,0,996.1,1010.1
2021-02-15T02:11:00+09:00,0.8,�k�k��,1.6,�k��,9.9,97.3,0.5,2,3,4.5,0,0,996,1010
2021-02-15T02:12:00+09:00,0.8,�k�k��,1.6,�k��,10.1,97.3,0,2,3,4.5,0,0,996,1010
2021-02-15T02:13:00+09:00,0.9,�k�k��,1.8,�k��,10.1,97.4,0,2,3,4.5,0,0,996,1010
2021-02-15T02:14:00+09:00,1,�k�k��,1.8,�k��,10,97.4,0,2,3,4.5,0,0,995.9,1009.9
2021-02-15T02:15:00+09:00,1,�k�k��,1.8,�k��,10.2,97.5,0,2,3,4.5,0,0,995.9,1009.9
2021-02-15T02:16:00+09:00,1.1,�k�k��,1.9,�k�k��,10.2,97.6,0,2,3,4.5,0,0,995.8,1009.8
2021-02-15T02:17:00+09:00,1.2,�k�k��,2.1,�k�k��,10.2,97.5,0,2,3,4.5,0,0,995.8,1009.8
2021-02-15T02:18:00+09:00,1.3,�k��,2.1,�k�k��,10.3,97.6,0,2,3,4.5,0,0,995.7,1009.7
2021-02-15T02:19:00+09:00,1.3,�k��,2.1,�k�k��,10.4,97.6,0,2,3,4.5,0,0,995.7,1009.7
2021-02-15T02:20:00+09:00,1.4,�k��,2.1,�k�k��,10.2,97.5,0,2,3,4.5,0,0,995.7,1009.7
2021-02-15T02:21:00+09:00,1.5,�k��,2.1,�k�k��,10.3,97.5,0,2,3,4.5,0,0,995.6,1009.6
2021-02-15T02:22:00+09:00,1.4,�k��,2.1,�k�k��,10.2,97.6,0,2,3,4.5,0,0,995.6,1009.6
2021-02-15T02:23:00+09:00,1.5,�k��,2.1,�k�k��,10.2,97.4,0,2,3,4.5,0,0,995.5,1009.5
2021-02-15T02:24:00+09:00,1.4,�k��,2.1,�k�k��,10.2,97.3,0,2,3,4.5,0,0,995.5,1009.5
2021-02-15T02:25:00+09:00,1.5,�k��,2.4,�k��,10.3,97.5,0,2,3,4.5,0,0,995.5,1009.5
2021-02-15T02:26:00+09:00,1.5,�k��,2.4,�k��,10.2,97.5,0.5,2.5,3.5,5,0,0,995.5,1009.5
2021-02-15T02:27:00+09:00,1.5,�k��,2.4,�k��,10.1,97.4,0.5,2.5,3.5,5,0,0,995.4,1009.4
2021-02-15T02:28:00+09:00,1.4,�k��,2.4,�k��,10.2,97.3,0.5,2,3.5,5,0,0,995.4,1009.4
2021-02-15T02:29:00+09:00,1.3,�k�k��,2.4,�k��,10.2,97.3,0.5,2,3.5,5,0,0,995.4,1009.4
2021-02-15T02:30:00+09:00,1.3,�k�k��,2.4,�k��,10.2,97.4,0.5,2,3.5,5,0,0,995.3,1009.3
2021-02-15T02:31:00+09:00,1.3,�k�k��,2.4,�k��,10.2,97.5,0.5,2,3.5,5,0,0,995.3,1009.3
2021-02-15T02:32:00+09:00,1.3,�k�k��,2.4,�k��,10.2,97.5,0.5,2,3.5,5,0,0,995.2,1009.2
2021-02-15T02:33:00+09:00,1.3,�k�k��,2.4,�k��,10.2,97.4,0.5,2,3.5,5,0,0,995.1,1009.1
2021-02-15T02:34:00+09:00,1.3,�k�k��,2.4,�k��,10.1,97.4,0.5,2,3.5,5,0,0,995.1,1009.1
2021-02-15T02:35:00+09:00,1.3,�k�k��,2.1,�k��,10,97.3,0.5,2,3.5,5,0,0,995.1,1009.1
2021-02-15T02:36:00+09:00,1.3,�k�k��,2.1,�k��,10.2,97.3,0,2,3.5,5,0,0,995,1009
2021-02-15T02:37:00+09:00,1.3,�k�k��,2.1,�k��,10.2,97.4,0,2,3.5,5,0,0,995,1009
2021-02-15T02:38:00+09:00,1.3,�k�k��,2,�k��,10.1,97.4,0,2,3.5,5,0,0,994.9,1008.9
2021-02-15T02:39:00+09:00,1.3,�k��,2.3,�k�k��,10.1,97.3,0,2,3.5,5,0,0,994.9,1008.9
2021-02-15T02:40:00+09:00,1.4,�k��,2.6,�k��,10.1,97.4,0,2,3.5,5,0,0,994.8,1008.8
2021-02-15T02:41:00+09:00,1.5,�k��,3.1,�k��,10.1,97.4,0,2,3.5,5,0,0,994.8,1008.8
2021-02-15T02:42:00+09:00,1.6,�k��,3.1,�k��,10.2,97.5,0,2,3.5,5,0,0,994.7,1008.7
2021-02-15T02:43:00+09:00,1.6,�k��,3.1,�k��,10.3,97.7,0,2,3.5,5,0,0,994.6,1008.6
2021-02-15T02:44:00+09:00,1.7,�k��,3.4,�k��,10.2,97.6,0,2,3.5,5,0,0,994.5,1008.5
2021-02-15T02:45:00+09:00,1.8,�k��,3.4,�k��,10.3,97.5,0,1.5,3.5,5,0,0,994.5,1008.5
2021-02-15T02:46:00+09:00,1.9,�k��,3.4,�k��,10.3,97.5,0,1.5,3.5,5,0,0,994.4,1008.4
2021-02-15T02:47:00+09:00,1.9,�k��,3.4,�k��,10.3,97.6,0,1.5,3.5,5,0,0,994.5,1008.5
2021-02-15T02:48:00+09:00,2.1,�k��,3.4,�k��,10.2,97.5,0,1.5,3.5,5,0,0,994.5,1008.5
2021-02-15T02:49:00+09:00,2.2,�k��,3.4,�k��,10.2,97.3,0,1.5,3.5,5,0,0,994.5,1008.5
2021-02-15T02:50:00+09:00,2.1,�k��,3.4,�k��,10.1,97.2,0,1.5,3.5,5,0,0,994.6,1008.6
2021-02-15T02:51:00+09:00,2.1,�k��,3.4,�k��,10.2,97.3,0,1.5,3.5,5,0,0,994.6,1008.6
2021-02-15T02:52:00+09:00,2.1,�k��,3.4,�k��,10.3,97.3,0,1.5,3.5,5,0,0,994.6,1008.6
2021-02-15T02:53:00+09:00,2,�k��,3.4,�k��,10.3,97.4,0,1.5,3.5,5,0,0,994.6,1008.6
2021-02-15T02:54:00+09:00,2,�k��,3.3,�k��,10.2,97.5,0,1,3.5,5,0,0,994.6,1008.6
2021-02-15T02:55:00+09:00,1.9,�k��,3.1,�k��,10.3,97.4,0,1,3.5,5,0,0,994.6,1008.6
2021-02-15T02:56:00+09:00,1.7,�k��,3.1,�k��,10.2,97.5,0,1,3.5,5,0,0,994.5,1008.5
2021-02-15T02:57:00+09:00,1.7,�k��,3.1,�k��,10.4,97.5,0,1,3.5,5,0,0,994.5,1008.5
2021-02-15T02:58:00+09:00,1.5,�k��,3.1,�k��,10.3,97.4,0,1,3.5,5,0,0,994.4,1008.4
2021-02-15T02:59:00+09:00,1.4,�k��,2.7,�k�k��,10.3,97.4,0,1,3.5,5,0,0,994.4,1008.4
2021-02-15T03:00:00+09:00,1.3,�k��,2.7,�k�k��,10.2,97.3,0,1,3.5,5,0,0,994.3,1008.3
2021-02-15T03:01:00+09:00,1.2,�k�k��,2.5,�k�k��,10.1,97.1,0,1,3.5,5,0,0,994.2,1008.2
2021-02-15T03:02:00+09:00,1.2,�k��,2.4,�k��,10.2,97,0,0.5,3.5,5,0,0,994.2,1008.2
2021-02-15T03:03:00+09:00,1,�k��,2,�k�k��,10.2,97.2,0,0.5,3.5,5,0,0,994.2,1008.2
2021-02-15T03:04:00+09:00,1,�k��,2,�k�k��,10.3,97.3,0,0.5,3.5,5,0,0,994.1,1008.1
2021-02-15T03:05:00+09:00,1,�k��,2,�k�k��,10.3,97.4,0,0.5,3.5,5,0,0,994.1,1008.1
2021-02-15T03:06:00+09:00,1,�k��,2,�k�k��,10.1,97.2,0,0.5,3.5,5,0,0,994.1,1008.1
2021-02-15T03:07:00+09:00,1,�k��,2,�k�k��,10,97,0,0.5,3.5,5,0,0,994,1008
2021-02-15T03:08:00+09:00,1.1,�k��,3,�k��,10.2,97.1,0,0.5,3.5,5,0,0,994,1008
2021-02-15T03:09:00+09:00,1.2,�k��,3.1,�k��,10.2,97.3,0,0.5,3.5,5,0,0,994,1008
2021-02-15T03:10:00+09:00,1.3,�k��,3.1,�k��,10.3,97.3,0,0.5,3.5,5,0,0,994,1008
2021-02-15T03:11:00+09:00,1.4,�k��,3.1,�k��,10.2,97.4,0,0.5,3.5,5,0,0,994,1008
2021-02-15T03:12:00+09:00,1.4,�k��,3.1,�k��,10.2,97.1,0,0.5,3.5,5,0,0,993.9,1007.9
2021-02-15T03:13:00+09:00,1.4,���k��,3.1,�k��,10.2,97.2,0,0.5,3.5,5,0,0,993.9,1007.9
2021-02-15T03:14:00+09:00,1.4,���k��,3.2,�k��,10.1,97.1,0.5,1,4,5.5,0,0,993.9,1007.9
2021-02-15T03:15:00+09:00,1.5,�k��,3.2,�k��,10.3,97.2,0.5,1,4,5.5,0,0,993.8,1007.8
2021-02-15T03:16:00+09:00,1.5,�k��,3.2,�k��,10.3,97.4,0.5,1,4,5.5,0,0,993.8,1007.8
2021-02-15T03:17:00+09:00,1.6,�k��,3.2,�k��,10.3,97.4,0.5,1,4,5.5,0,0,993.8,1007.8
2021-02-15T03:18:00+09:00,1.6,�k��,3.2,�k��,10.3,97.3,0.5,1,4,5.5,0,0,993.7,1007.7
2021-02-15T03:19:00+09:00,1.6,�k��,3.2,�k��,10.3,97.2,0.5,1,4,5.5,0,0,993.7,1007.7
2021-02-15T03:20:00+09:00,1.5,�k��,3.2,�k��,10.3,97.3,0.5,1,4,5.5,0,0,993.7,1007.7
2021-02-15T03:21:00+09:00,1.7,�k��,3.4,�k��,10.3,97.3,0.5,1,4,5.5,0,0,993.6,1007.6
2021-02-15T03:22:00+09:00,1.9,�k��,4,�k��,10.3,97.2,0.5,1,4,5.5,0,0,993.6,1007.6
2021-02-15T03:23:00+09:00,2.2,�k��,4.3,�k��,10.3,97.2,0.5,1,4,5.5,0,0,993.5,1007.5
2021-02-15T03:24:00+09:00,2.3,�k��,4.3,�k��,10.4,97.4,0,1,4,5.5,0,0,993.5,1007.5
2021-02-15T03:25:00+09:00,2.2,�k��,4.3,�k��,10.3,97.3,0,1,4,5.5,0,0,993.5,1007.5
2021-02-15T03:26:00+09:00,2.2,�k��,4.3,�k��,10.3,97.3,0,0.5,4,5.5,0,0,993.5,1007.5
2021-02-15T03:27:00+09:00,2.1,�k��,4.3,�k��,10.3,97.3,0.5,1,4.5,6,0,0,993.5,1007.5
2021-02-15T03:28:00+09:00,2.2,�k��,4.3,�k��,10.4,97.3,0.5,1,4.5,6,0,0,993.5,1007.5
2021-02-15T03:29:00+09:00,2.2,�k��,4.3,�k��,10.4,97.3,0.5,1,4.5,6,0,0,993.4,1007.4
2021-02-15T03:30:00+09:00,2.2,�k��,4.3,�k��,10.4,97.3,0.5,1,4.5,6,0,0,993.3,1007.3
2021-02-15T03:31:00+09:00,2,�k�k��,4.3,�k��,10.3,97.2,0.5,1,4.5,6,0,0,993.3,1007.3
2021-02-15T03:32:00+09:00,1.8,�k�k��,4.3,�k��,10.5,97.3,0.5,1,4.5,6,0,0,993.3,1007.2
2021-02-15T03:33:00+09:00,1.5,�k�k��,3.7,�k��,10.4,97.3,0.5,1,4.5,6,0,0,993.2,1007.1
2021-02-15T03:34:00+09:00,1.3,�k�k��,2.7,�k��,10.3,97.2,0.5,1,4.5,6,0,0,993.2,1007.2
2021-02-15T03:35:00+09:00,1.2,�k,2.7,�k��,10.4,97.2,0.5,1,4.5,6,0,0,993.1,1007
2021-02-15T03:36:00+09:00,1.1,�k,2.6,�k�k��,10.4,97.3,0.5,1,4.5,6,0,0,993.1,1007
2021-02-15T03:37:00+09:00,0.9,�k,2.6,�k�k��,10.3,97.2,0,1,4.5,6,0,0,993,1007
2021-02-15T03:38:00+09:00,0.8,�k,2.3,�k�k��,10.3,97.1,0,1,4.5,6,0,0,993,1007
2021-02-15T03:39:00+09:00,0.7,�k,2.3,�k�k��,10.3,97.1,0,1,4.5,6,0,0,992.9,1006.8
2021-02-15T03:40:00+09:00,0.5,�k,1.8,�k,10.4,97.2,0,1,4.5,6,0,0,992.9,1006.8
2021-02-15T03:41:00+09:00,0.4,�k�k��,1.8,�k,10.3,97.4,0,1,4.5,6,0,0,992.9,1006.8
2021-02-15T03:42:00+09:00,0.4,�k�k��,1.1,�k,10.3,97.2,0.5,1.5,5,6.5,0,0,992.9,1006.8
2021-02-15T03:43:00+09:00,0.3,�k,1,���k��,10.3,97.2,0.5,1.5,5,6.5,0,0,992.9,1006.8
2021-02-15T03:44:00+09:00,0.3,�k,1,���k��,10.3,97.1,0.5,1.5,5,6.5,0,0,992.9,1006.8
2021-02-15T03:45:00+09:00,0.3,�k,1,���k��,10.3,97.3,0.5,1.5,5,6.5,0,0,992.9,1006.8
2021-02-15T03:46:00+09:00,0.3,�k,1,���k��,10.5,97.4,0.5,1.5,5,6.5,0,0,992.9,1006.8
2021-02-15T03:47:00+09:00,0.4,�k,1,���k��,10.4,97.4,0.5,1.5,5,6.5,0,0,992.9,1006.8
2021-02-15T03:48:00+09:00,0.4,�k�k��,1.1,�k��,10.4,97.3,0.5,1.5,5,6.5,0,0,993,1006.9
2021-02-15T03:49:00+09:00,0.5,�k�k��,2.3,�k�k��,10.4,97.3,0.5,1.5,5,6.5,0,0,993,1006.9
2021-02-15T03:50:00+09:00,0.7,�k�k��,2.4,�k�k��,10.5,97.3,0.5,1.5,5,6.5,0,0,993,1006.9
2021-02-15T03:51:00+09:00,0.8,�k�k��,2.4,�k�k��,10.6,97.6,0.5,1.5,5,6.5,0,0,993,1006.9
2021-02-15T03:52:00+09:00,0.9,�k�k��,2.4,�k�k��,10.6,97.5,0,1.5,5,6.5,0,0,993,1006.9
2021-02-15T03:53:00+09:00,1,�k�k��,2.4,�k�k��,10.5,97.6,0.5,2,5.5,7,0,0,993,1006.9
2021-02-15T03:54:00+09:00,1.1,�k��,2.4,�k�k��,10.5,97.3,0.5,2,5.5,7,0,0,992.9,1006.8
2021-02-15T03:55:00+09:00,1.2,�k��,2.4,�k�k��,10.6,97.4,0.5,2,5.5,7,0,0,992.8,1006.7
2021-02-15T03:56:00+09:00,1.3,�k��,2.4,�k�k��,10.6,97.6,0.5,2,5.5,7,0,0,992.8,1006.7
2021-02-15T03:57:00+09:00,1.3,�k��,2.4,�k�k��,10.6,97.5,0.5,2,5.5,7,0,0,992.7,1006.6
2021-02-15T03:58:00+09:00,1.3,�k��,2.4,�k�k��,10.6,97.4,1,2.5,6,7.5,0,0,992.6,1006.5
2021-02-15T03:59:00+09:00,1.2,�k��,2.4,�k�k��,10.5,97.3,1,2.5,6,7.5,0,0,992.4,1006.3
2021-02-15T04:00:00+09:00,1.2,�k��,2.4,�k�k��,10.7,97.4,1,2.5,6,7.5,0,0,992.4,1006.3
2021-02-15T04:01:00+09:00,1.3,�k��,3.1,�k��,10.5,97.4,1,2.5,6,7.5,0,0,992.4,1006.3
2021-02-15T04:02:00+09:00,1.3,�k��,3.1,�k��,10.5,97.2,1,2.5,6,7.5,0,0,992.5,1006.4
2021-02-15T04:03:00+09:00,1.3,�k��,3.1,�k��,10.5,97.2,0.5,2.5,6,7.5,0,0,992.5,1006.4
2021-02-15T04:04:00+09:00,1.3,�k��,3.1,�k��,10.4,97.3,1,3,6.5,8,0,0,992.5,1006.4
2021-02-15T04:05:00+09:00,1.4,�k��,3.1,�k��,10.5,97.2,1,3,6.5,8,0,0,992.5,1006.4
2021-02-15T04:06:00+09:00,1.5,�k��,3.1,�k��,10.6,97.3,1,3,6.5,8,0,0,992.5,1006.4
2021-02-15T04:07:00+09:00,1.6,�k��,3.1,�k��,10.5,97.3,1,3,6.5,8,0,0,992.4,1006.3
2021-02-15T04:08:00+09:00,1.7,�k��,3.1,�k��,10.4,97.3,0.5,3,6.5,8,0,0,992.4,1006.3
2021-02-15T04:09:00+09:00,1.7,�k��,3.1,�k��,10.4,97.2,0.5,3,6.5,8,0,0,992.3,1006.2
2021-02-15T04:10:00+09:00,1.7,�k��,3.1,�k��,10.4,97.2,0.5,3,6.5,8,0,0,992.3,1006.2
2021-02-15T04:11:00+09:00,1.7,�k��,2.7,�k��,10.5,97.3,1,3.5,7,8.5,0,0,992.2,1006.1
2021-02-15T04:12:00+09:00,1.8,�k��,2.7,�k��,10.5,97.4,1,3.5,7,8.5,0,0,992.1,1006
2021-02-15T04:13:00+09:00,1.8,�k��,2.7,�k��,10.4,97.3,1,3.5,7,8.5,0,0,992.1,1006
2021-02-15T04:14:00+09:00,1.9,�k��,2.7,�k��,10.4,97.3,0.5,3,7,8.5,0,0,992,1005.9
2021-02-15T04:15:00+09:00,1.9,�k��,2.7,�k��,10.5,97.3,1,3.5,7.5,9,0,0,992,1005.9
2021-02-15T04:16:00+09:00,1.9,�k��,2.7,�k��,10.4,97.3,1,3.5,7.5,9,0,0,992,1005.9
2021-02-15T04:17:00+09:00,1.8,�k��,2.7,�k��,10.4,97.3,1,3.5,7.5,9,0,0,992,1005.9
2021-02-15T04:18:00+09:00,1.8,�k��,2.7,�k��,10.4,97.2,1,3.5,7.5,9,0,0,992,1005.9
2021-02-15T04:19:00+09:00,1.8,�k��,2.7,�k��,10.4,97.4,1,3.5,7.5,9,0,0,991.9,1005.8
2021-02-15T04:20:00+09:00,1.7,�k��,2.7,�k��,10.5,97.5,1,3.5,7.5,9,0,0,991.9,1005.8
2021-02-15T04:21:00+09:00,1.5,�k��,2.7,�k��,10.4,97.3,1,4,8,9.5,0,0,991.9,1005.8
2021-02-15T04:22:00+09:00,1.3,�k��,2.6,�k��,10.4,97.2,1,4,8,9.5,0,0,991.9,1005.8
2021-02-15T04:23:00+09:00,1.2,�k��,2.6,�k��,10.4,97.3,1,4,8,9.5,0,0,991.8,1005.7
2021-02-15T04:24:00+09:00,1.1,�k�k��,2.6,�k��,10.5,97.4,1,4,8,9.5,0,0,991.9,1005.8
2021-02-15T04:25:00+09:00,0.9,�k�k��,2.6,�k��,10.4,97.3,0.5,4,8,9.5,0,0,991.9,1005.8
2021-02-15T04:26:00+09:00,0.8,�k�k��,2.4,�k��,10.4,97.3,0.5,4,8,9.5,0,0,991.9,1005.8
2021-02-15T04:27:00+09:00,0.7,�k,1.8,���k��,10.3,97.2,1,4,8.5,10,0,0,991.9,1005.8
2021-02-15T04:28:00+09:00,0.6,�k,1.8,���k��,10.3,97.1,1,4,8.5,10,0,0,991.9,1005.8
2021-02-15T04:29:00+09:00,0.5,�k�k��,1.4,�k��,10.4,97.4,1,4,8.5,10,0,0,991.8,1005.7
2021-02-15T04:30:00+09:00,0.5,�k��,1.4,�k��,10.3,97.4,1,4,8.5,10,0,0,991.8,1005.7
2021-02-15T04:31:00+09:00,0.4,�k��,1.4,�k��,10.2,97.2,0.5,4,8.5,10,0,0,991.7,1005.6
2021-02-15T04:32:00+09:00,0.4,�k��,1.4,�k��,10.2,97.2,0.5,4,8.5,10,0,0,991.7,1005.6
2021-02-15T04:33:00+09:00,0.4,�k��,1.1,���k��,10.2,97.2,1,4.5,9,10.5,0,0,991.6,1005.5
2021-02-15T04:34:00+09:00,0.3,�k��,1.1,���k��,10.2,97.3,1,4.5,9,10.5,0,0,991.6,1005.5
2021-02-15T04:35:00+09:00,0.4,�k��,1.6,���k��,10.2,97.3,1,4.5,9,10.5,0,0,991.5,1005.4
2021-02-15T04:36:00+09:00,0.5,�k�k��,2,���k��,10.2,97.2,1,4.5,9,10.5,0,0,991.4,1005.3
2021-02-15T04:37:00+09:00,0.6,�k,2.6,���k��,10.3,97.4,0.5,4.5,9,10.5,0,0,991.4,1005.3
2021-02-15T04:38:00+09:00,0.8,�k�k��,2.6,���k��,10.4,97.5,1,5,9.5,11,0,0,991.4,1005.3
2021-02-15T04:39:00+09:00,0.9,�k��,2.6,���k��,10.4,97.5,1,5,9.5,11,0,0,991.3,1005.2
2021-02-15T04:40:00+09:00,1.1,�k��,2.6,���k��,10.3,97.5,1,5,9.5,11,0,0,991.3,1005.2
2021-02-15T04:41:00+09:00,1.2,�k��,2.6,���k��,10.3,97.4,1,5,9.5,11,0,0,991.3,1005.2
2021-02-15T04:42:00+09:00,1.3,���k��,2.6,���k��,10.5,97.5,1,4.5,9.5,11,0,0,991.3,1005.2
2021-02-15T04:43:00+09:00,1.5,���k��,2.6,���k��,10.3,97.5,1,5,10,11.5,0,0,991.3,1005.2
2021-02-15T04:44:00+09:00,1.6,���k��,2.6,���k��,10.3,97.4,1,5,10,11.5,0,0,991.3,1005.2
2021-02-15T04:45:00+09:00,1.7,���k��,2.6,���k��,10.5,97.5,1,5,10,11.5,0,0,991.2,1005.1
2021-02-15T04:46:00+09:00,1.6,�k��,2.6,���k��,10.5,97.6,1,5,10,11.5,0,0,991.2,1005.1
2021-02-15T04:47:00+09:00,1.6,�k��,2.6,�k�k��,10.5,97.6,1,5,10,11.5,0,0,991.1,1005